Location: D�pe
(52.6057°N, 8.1808°E)
Time: 14:18:45
(UTC+00:00)

SAR-Lupe-4 - Pass Details

Date: 29 October 2020
Orbit: 481 x 484 km, 98.2° (Epoch: 22 November)

Event Time Altitude Azimuth Distance (km) Brightness Sun altitude
Rises 17:02:36 0° 21° (NNE) 2,559 6.9 -9.6°
Reaches altitude 10° 17:04:47 10° 30° (NNE) 1,673 5.9 -10.0°
Maximum altitude 17:08:08 37° 99° (E) 774 4.1 -10.5°
Drops below altitude 10° 17:11:28 10° 168° (SSE) 1,659 6.2 -11.0°
Sets 17:13:37 0° 177° (S) 2,534 7.3 -11.3°
